YAMAL 402

Last updated on Jan. 26, 2020, 4:40 a.m. UTC

1 39022U 12070A   20025.81361931  .00000079  00000-0  00000+0 0  9992
2 39022   0.0166  87.2186 0002219 226.4596 158.6743  1.00271483 26199
UTC
Height (km)
Latitude
Longitude
Inclination
Orbital Period
UTC large
Height (km)
Speed (km/s)
/
Latitude / Longitude
Inclination (degrees)
Orbital Period (minutes)
Azimuth
Elevation
Range (km)
Doppler Factor
iOS Compass Heading
iOS Angle

Next 30 passes for location: Hong Kong

Rise time Rise Azimuth (degrees) Set time Set Azimuth (degrees) Duration Max altitude (degrees)

No matching passes for this satellites